NOAA-14
1 23455U 94089A   12200.96222992 -.00000012 00000-0 17094-4 0 09826
2 23455 098.8261 284.0617 0008702 226.2283 133.8166 14.13909303905280
NOAA-15
1 25338U 98030A   12200.93247165 .00000250 00000-0 12539-3 0 03380
2 25338 098.6910 187.5439 0011080 021.7936 338.3745 14.25096219737370
RESURS
1 25394U 98043A   12201.92768328  .00000042  00000-0  35759-4 0  1405
2 25394 098.3218 188.4443 0001946 115.3927 244.7455 14.24290885729064
FENGYUN1
1 25730U 99025A   12200.94239122 .00001066 00000-0 63214-3 0 06639
2 25730 098.8462 159.3732 0018083 276.4478 083.4628 14.09669706679083
OKEAN-0
1 25860U 99039A   12200.95732074  .00000456  00000-0  76489-4 0  6847
2 25860 097.9383 162.9551 0001595 098.7849 261.3539 14.74244833699256
NOAA-16
1 26536U 00055A   12200.90758680 -.00000001 00000-0 24326-4 0 08251
2 26536 099.0913 243.5168 0010365 000.1340 359.9837 14.12758808609516
NOAA-17
1 27453U 02032A   12200.91277566 .00000113 00000-0 66491-4 0 07753
2 27453 098.3356 226.3453 0012645 066.3930 293.8583 14.24459300523276
NOAA-18
1 28654U 05018A   12200.88966034 .00000100 00000-0 79797-4 0 02568
2 28654 099.0469 159.2442 0015260 066.9690 293.3126 14.11673944369038
NOAA-19
1 33591U 09005A   12200.90459681 .00000138 00000-0 10043-3 0 04462
2 33591 098.8645 140.3017 0013316 294.3280 065.6538 14.11361022177482
HUBBLE
1 20580U 90037B   12200.40833987  .00002046  00000-0  13749-3 0   362
2 20580 028.4719 299.2153 0003410 034.1357 325.9826 15.02634001 19434
ISS
1 25544U 98067A   12201.84316478  .00007802  00000-0  12290-3 0  9610
2 25544 051.6440 319.1582 0000617 251.2853 250.9889 15.54589930783098
CO-58
1 28895U 05043F   12201.55350930  .00000777  00000-0  16835-3 0  2293
2 28895 097.9096 066.3971 0018803 052.2996 307.9932 14.60682039358388
FALCON
1 30776U 07006E   12200.97575868 .00003721 00000-0 24097-3 0 04113
2 30776 035.4299 082.6474 0003229 291.7443 068.2928 15.07773502295057
MAST
1 31126U 07012K   12200.94327923 .00000734 00000-0 17359-3 0 05142
2 31126 097.8744 210.1860 0094266 012.4199 347.9301 14.54203250278881
CAPE1
1 31130U 07012P   12201.55670407  .00000634  00000-0  15385-3 0  5206
2 31130 097.8809 207.1272 0102135 024.0172 336.5739 14.52994851278472
COMPASS
1 32787U 08021E   12201.76953274  .00001498  00000-0  18543-3 0  3593
2 32787 097.7987 262.3834 0014220 317.3425 042.6650 14.84129099228640
AAUSAT2
1 32788U 08021F   12201.73198893  .00002186  00000-0  26557-3 0  3509
2 32788 097.8011 262.7458 0013628 318.4504 041.5651 14.84462958228662
DO-64
1 32789U 08021G   12200.73590359 .00004462 00000-0 51533-3 0 03671
2 32789 097.8114 263.9139 0013610 317.3822 042.6307 14.86036028228564
CO-66
1 32791U 08021J   12200.69301944 .00001895 00000-0 23629-3 0 03514
2 32791 097.7992 261.0464 0014912 320.9391 039.0738 14.83523496228416
RS-30
1 32953U 08025A   12201.72655719  .00000010  00000-0  000000 0  9759
2 32953 082.5022 274.9055 0017681 234.2672 125.6764 12.43025698188608
TACSAT-3
1 35001U 09028A   12121.72616188 .15204951 73582-5 42606-3 0 00016
2 35001 040.4259 351.8840 0007146 275.2650 085.0693 16.45157000166990
PHARMSAT
1 35002U 09028B   12201.45821037  .00255372  32223-4  55885-3 0  9966
2 35002 040.4540 218.9289 0011236 146.4887 213.6446 15.97215367179468
METEOR-M
1 35865U 09049A   12201.23790677 -.00000020  00000-0  10530-4 0  6034
2 35865 098.6525 254.9594 0002153 342.2466 017.8637 14.21865835147153
RS-38
1 35869U 09049E   12201.67644751  .00000030  00000-0  33015-4 0  6131
2 35869 098.6477 255.3796 0004182 329.4063 030.6869 14.22079035147235
JUGNU
1 37839U 11058B   12200.26351213 .00000620 00000-0 19019-3 0 01907
2 37839 019.9630 169.9537 0019263 204.6208 155.3278 14.12065837039643
SRMSAT
1 37841U 11058D   12200.28958742 .00000264 00000-0 00000-0 0 01891
2 37841 019.9730 175.2863 0012247 172.7338 187.3245 14.10150716039595
RAX-2
1 37853U 11061D   12201.76815099  .00001624  00000-0  13806-3 0  2342
2 37853 101.7121 256.7929 0246311 257.9165 099.4329 14.80217736 39213
AUBIESAT
1 37854U 11061E   12200.70065492 .00002829 00000-0 22845-3 0 02419
2 37854 101.7138 255.5296 0246996 260.1729 097.1505 14.80611720039051
HRBE
1 37855U 11061F   12200.85264582 .00002858 00000-0 23133-3 0 02432
2 37855 101.7137 255.6951 0247369 259.9359 097.3835 14.80459975039072
RS-39
1 38051U 11062C   12201.90795295  .00007949  00000-0  32863-3 0  5292
2 38051 051.6357 003.8643 0014532 151.4545 344.5933 15.24786586 26966
E-STAR
1 38079U 12006C   12202.08872497  .00027389  00000-0  66006-3 0  3644
2 38079 069.4890 240.3859 0736232 206.3991 149.7387 14.16900223 22246
GOLIAT
1 38085U 12006J   12201.46751099  .00030507  00000-0  72610-3 0  3336
2 38085 069.4935 242.1772 0742165 207.5635 148.3563 14.15870739 22144
HORYU-2
1 38340U 12025D   12201.83927483  .00000923  00000-0  16213-3 0   540
2 38340 098.1754 141.6426 0011982 223.9463 136.0691 14.70046418  9277
